FW7499 Weather Reports


Display with metric or nautical units.
time (UTC)temp
F
wind
direction
speed
MPH
gust
MPH
rain 1hr
in
rain 24hr
in
rain mn
in
humidity
%
barometer
mb
20260904044003 83 167 2.0 5.0 0.00 0.02 0.02 63 1010.2
20260904043503 83 182 0.0 8.0 0.00 0.02 0.02 63 1010.3
20260904043001 84 52 0.0 8.0 0.00 0.02 0.02 63 1010.2
20260904042503 84 242 1.0 5.0 0.00 0.02 0.02 63 1010.2
20260904042002 84 315 0.0 4.0 0.00 0.02 0.02 63 1010.2
20260904041504 84 103 0.0 4.0 0.00 0.02 0.02 63 1010.3
20260904041004 84 221 1.0 4.0 0.00 0.02 0.02 62 1010.2
20260904040502 84 348 1.0 8.0 0.00 0.02 0.02 62 1010.2
20260904040006 84 25 2.0 8.0 0.00 0.02 0.02 62 1010.2
20260904035504 84 251 2.0 8.0 0.00 0.02 0.02 62 1010.2
20260904035004 85 248 2.0 7.0 0.00 0.02 0.02 62 1010.2
20260904034511 85 272 1.0 3.0 0.00 0.02 0.02 62 1010.3
20260904034007 85 160 0.0 4.0 0.00 0.02 0.02 62 1010.3
20260904033504 85 96 0.0 4.0 0.00 0.02 0.02 62 1010.3
20260904033002 85 332 1.0 5.0 0.00 0.02 0.02 62 1010.3
20260904032509 84 86 2.0 5.0 0.00 0.02 0.02 63 1010.2
20260904032008 84 104 0.0 4.0 0.00 0.02 0.02 64 1010.2
20260904031504 85 17 1.0 4.0 0.00 0.02 0.02 63 1010.2
20260904031005 85 172 1.0 4.0 0.00 0.02 0.02 63 1010.1
20260904030503 85 158 0.0 4.0 0.00 0.02 0.02 63 1010.0
20260904030001 85 82 1.0 3.0 0.00 0.02 0.02 64 1009.9
20260904025504 85 232 1.0 3.0 0.00 0.02 0.02 63 1009.9
20260904025003 85 128 0.0 2.0 0.00 0.02 0.02 64 1010.0
20260904024506 85 74 0.0 2.0 0.00 0.02 0.02 64 1009.9
20260904024003 85 80 0.0 3.0 0.00 0.02 0.02 65 1009.9
20260904023505 85 80 0.0 3.0 0.00 0.02 0.02 64 1009.9
20260904023012 85 77 0.0 3.0 0.00 0.02 0.02 64 1009.9
20260904022504 85 119 1.0 4.0 0.00 0.02 0.02 63 1009.9
20260904022006 86 121 0.0 4.0 0.00 0.02 0.02 63 1009.8
20260904021516 86 194 1.0 3.0 0.00 0.02 0.02 62 1009.8
20260904021017 86 223 1.0 3.0 0.00 0.02 0.02 62 1009.7
20260904020504 86 35 0.0 4.0 0.00 0.02 0.02 62 1009.7
20260904020006 86 212 1.0 4.0 0.00 0.02 0.02 62 1009.7
20260904015505 87 5 0.0 3.0 0.00 0.02 0.02 61 1009.7
20260904015005 87 5 0.0 4.0 0.00 0.02 0.02 60 1009.6
20260904014505 87 120 1.0 5.0 0.00 0.02 0.02 60 1009.5
20260904014005 87 231 1.0 5.0 0.00 0.02 0.02 60 1009.4
20260904013505 88 221 1.0 5.0 0.00 0.02 0.02 59 1009.3
20260904013006 88 278 1.0 5.0 0.00 0.02 0.02 59 1009.3
20260904012508 88 170 2.0 7.0 0.00 0.02 0.02 58 1009.3
20260904012012 88 178 1.0 7.0 0.00 0.02 0.02 59 1009.1
20260904011502 88 191 0.0 6.0 0.00 0.02 0.02 59 1009.0
20260904011002 88 340 1.0 5.0 0.00 0.02 0.02 59 1009.1
20260904010511 88 203 2.0 7.0 0.00 0.02 0.02 59 1009.0
20260904010020 89 198 3.0 7.0 0.00 0.02 0.02 59 1009.0
20260904005503 89 119 1.0 7.0 0.00 0.02 0.02 59 1008.9
20260904005003 89 286 1.0 8.0 0.00 0.02 0.02 59 1008.9
20260904004526 89 90 2.0 8.0 0.00 0.02 0.02 58 1008.8
20260904004004 89 197 1.0 5.0 0.00 0.02 0.02 58 1008.8
20260904003503 90 219 0.0 5.0 0.00 0.02 0.02 59 1008.8
20260904003007 90 213 2.0 5.0 0.00 0.02 0.02 58 1008.8
20260904002506 90 309 1.0 4.0 0.00 0.02 0.02 58 1008.8
20260904002004 90 200 1.0 4.0 0.00 0.02 0.02 57 1008.8
20260904001516 90 225 1.0 4.0 0.00 0.02 0.02 57 1008.8
20260904001006 91 190 1.0 4.0 0.00 0.02 0.02 56 1008.7
20260904000511 91 188 2.0 4.0 0.00 0.02 0.02 56 1008.7
20260904000014 91 200 1.0 6.0 0.00 0.02 0.02 57 1008.6
20260903235509 92 259 1.0 8.0 0.00 0.02 0.02 55 1008.6
20260903235013 92 240 3.0 8.0 0.00 0.02 0.02 55 1008.7
20260903234506 92 279 2.0 8.0 0.00 0.02 0.02 55 1008.6
20260903234009 92 42 3.0 8.0 0.00 0.02 0.02 54 1008.6
20260903233510 92 219 1.0 4.0 0.00 0.02 0.02 56 1008.6
20260903233004 93 66 1.0 8.0 0.00 0.02 0.02 53 1008.6
20260903232508 93 224 3.0 8.0 0.00 0.02 0.02 53 1008.6
20260903232005 93 333 3.0 7.0 0.00 0.02 0.02 53 1008.6
20260903231512 93 209 2.0 7.0 0.00 0.02 0.02 53 1008.6
20260903231005 93 206 1.0 6.0 0.00 0.02 0.02 53 1008.4
20260903230505 93 174 1.0 8.0 0.00 0.02 0.02 52 1008.5
20260903230015 94 173 3.0 7.0 0.00 0.02 0.02 52 1008.5
20260903225510 94 242 1.0 7.0 0.00 0.02 0.02 53 1008.4
20260903225005 94 171 2.0 6.0 0.00 0.02 0.02 52 1008.5
20260903224517 95 65 1.0 5.0 0.00 0.02 0.02 52 1008.4
20260903224011 95 114 1.0 7.0 0.00 0.02 0.02 51 1008.3
20260903223514 95 212 2.0 8.0 0.00 0.02 0.02 52 1008.3
20260903223010 95 242 1.0 9.0 0.00 0.02 0.02 53 1008.3
20260903222516 95 274 1.0 9.0 0.00 0.02 0.02 52 1008.3
20260903222018 95 12 3.0 8.0 0.00 0.02 0.02 52 1008.4
20260903221505 95 179 3.0 9.0 0.00 0.02 0.02 53 1008.3
20260903221006 95 336 2.0 9.0 0.00 0.02 0.02 52 1008.3
20260903220505 95 295 2.0 12.0 0.00 0.02 0.02 53 1008.4
20260903220013 95 254 2.0 12.0 0.00 0.02 0.02 52 1008.3
20260903215509 95 74 2.0 10.0 0.00 0.02 0.02 51 1008.4
20260903215012 95 163 1.0 10.0 0.00 0.02 0.02 53 1008.4
20260903214519 95 101 2.0 10.0 0.00 0.02 0.02 52 1008.3
20260903214011 95 189 3.0 10.0 0.00 0.02 0.02 52 1008.4
20260903213515 95 79 2.0 8.0 0.00 0.02 0.02 53 1008.4
20260903213010 95 192 3.0 9.0 0.00 0.02 0.02 53 1008.5
20260903212516 95 180 2.0 9.0 0.00 0.02 0.02 51 1008.5
20260903212011 95 126 2.0 7.0 0.00 0.02 0.02 52 1008.4
20260903211518 95 220 3.0 8.0 0.00 0.02 0.02 51 1008.5
20260903211014 95 159 4.0 8.0 0.00 0.02 0.02 52 1008.5
20260903210518 96 289 1.0 7.0 0.00 0.02 0.02 54 1008.5
20260903210010 95 51 1.0 13.0 0.00 0.02 0.02 54 1008.6
20260903205509 95 152 3.0 13.0 0.00 0.02 0.02 54 1008.7
20260903205009 95 300 3.0 8.0 0.00 0.02 0.02 51 1008.7
20260903204512 95 212 3.0 8.0 0.00 0.02 0.02 51 1008.7
20260903204012 95 128 1.0 12.0 0.00 0.02 0.02 53 1008.8
20260903203511 95 264 3.0 12.0 0.00 0.02 0.02 54 1008.9
20260903203023 95 259 2.0 9.0 0.00 0.02 0.02 52 1008.9
20260903202509 96 342 3.0 9.0 0.00 0.02 0.02 52 1009.0
20260903202014 95 333 3.0 9.0 0.00 0.02 0.02 51 1008.9
20260903201522 95 201 1.0 12.0 0.00 0.02 0.02 53 1009.0
20260903201004 95 201 4.0 12.0 0.00 0.02 0.02 51 1009.0
20260903200504 96 344 2.0 8.0 0.00 0.02 0.02 51 1009.0
20260903200008 95 294 2.0 8.0 0.00 0.02 0.02 51 1009.0
20260903195506 95 55 1.0 9.0 0.00 0.02 0.02 51 1009.1
20260903195008 95 230 2.0 10.0 0.00 0.02 0.02 52 1009.1
20260903194512 94 75 3.0 10.0 0.00 0.02 0.02 55 1009.1
20260903194004 94 209 2.0 11.0 0.00 0.02 0.02 55 1009.1
20260903193509 94 245 3.0 11.0 0.00 0.02 0.02 55 1009.3
20260903193009 93 204 2.0 6.0 0.00 0.02 0.02 56 1009.4
20260903192511 93 165 1.0 6.0 0.00 0.02 0.02 56 1009.4
20260903192003 94 211 3.0 8.0 0.00 0.02 0.02 57 1009.4
20260903191508 93 150 2.0 8.0 0.00 0.02 0.02 55 1009.5
20260903191012 93 236 1.0 5.0 0.00 0.02 0.02 60 1009.7
20260903190504 93 232 1.0 7.0 0.00 0.02 0.02 57 1009.8
20260903190006 92 189 2.0 7.0 0.00 0.02 0.02 58 1009.9
20260903185503 92 205 2.0 9.0 0.00 0.02 0.02 56 1010.0
20260903185007 91 157 3.0 9.0 0.00 0.02 0.02 56 1009.9
20260903184510 92 65 1.0 6.0 0.00 0.02 0.02 58 1009.9
20260903184009 92 178 1.0 6.0 0.00 0.02 0.02 59 1010.1
20260903183513 91 56 1.0 6.0 0.00 0.02 0.02 58 1010.2
20260903183005 92 306 1.0 4.0 0.00 0.02 0.02 58 1010.2
20260903182511 92 102 0.0 9.0 0.00 0.02 0.02 62 1010.4
20260903182011 91 128 1.0 9.0 0.00 0.02 0.02 60 1010.4
20260903181523 90 141 1.0 5.0 0.00 0.02 0.02 59 1010.4
20260903181003 91 315 2.0 5.0 0.00 0.02 0.02 58 1010.6
20260903180512 90 161 1.0 4.0 0.00 0.02 0.02 57 1010.6
20260903180021 90 294 1.0 5.0 0.00 0.02 0.02 60 1010.7
20260903175510 90 229 2.0 5.0 0.00 0.02 0.02 56 1010.7
20260903175004 90 235 1.0 6.0 0.00 0.02 0.02 61 1010.8
20260903174508 89 285 1.0 6.0 0.00 0.02 0.02 58 1010.8
20260903174004 89 313 1.0 6.0 0.00 0.02 0.02 60 1010.7
20260903173504 89 161 2.0 6.0 0.00 0.02 0.02 59 1010.7
20260903173013 88 246 1.0 6.0 0.00 0.02 0.02 60 1010.8
20260903172511 88 205 1.0 8.0 0.00 0.02 0.02 61 1010.9
20260903172013 88 170 2.0 8.0 0.00 0.02 0.02 62 1011.1
20260903171512 87 108 0.0 5.0 0.00 0.02 0.02 65 1011.0
20260903171011 87 179 2.0 6.0 0.00 0.02 0.02 65 1010.9
20260903170510 86 157 2.0 6.0 0.00 0.02 0.02 67 1011.0
20260903170012 85 130 1.0 4.0 0.00 0.02 0.02 65 1011.1
20260903165515 85 223 2.0 4.0 0.00 0.02 0.02 68 1011.3
20260903165008 84 213 1.0 4.0 0.00 0.02 0.02 68 1011.4
20260903164533 83 187 0.0 2.0 0.00 0.02 0.02 69 1011.4
20260903164008 83 212 0.0 2.0 0.00 0.02 0.02 71 1011.3
20260903163506 82 340 1.0 3.0 0.00 0.02 0.02 74 1011.2
20260903163020 82 102 1.0 3.0 0.00 0.02 0.02 73 1011.1
20260903162506 81 265 0.0 2.0 0.00 0.02 0.02 76 1011.2
20260903162010 81 250 1.0 4.0 0.00 0.02 0.02 75 1011.1
20260903161519 82 92 0.0 4.0 0.00 0.02 0.02 71 1011.1
20260903161010 82 161 1.0 4.0 0.00 0.02 0.02 70 1011.2
20260903160510 82 15 0.0 3.0 0.00 0.02 0.02 70 1011.2
20260903160023 82 294 0.0 4.0 0.00 0.02 0.02 69 1011.2
20260903155507 82 175 1.0 4.0 0.00 0.02 0.02 69 1011.2
20260903155020 82 136 1.0 4.0 0.00 0.02 0.02 70 1011.3
20260903154515 82 140 1.0 4.0 0.00 0.02 0.02 69 1011.3
20260903154013 82 103 1.0 3.0 0.00 0.02 0.02 71 1011.3
20260903153515 82 160 0.0 3.0 0.00 0.02 0.02 71 1011.4
20260903153011 81 137 1.0 4.0 0.00 0.02 0.02 70 1011.4
20260903152507 81 108 2.0 7.0 0.00 0.02 0.02 70 1011.5
20260903152008 81 107 1.0 7.0 0.00 0.02 0.02 69 1011.6
20260903151514 80 95 1.0 6.0 0.00 0.02 0.02 73 1011.6
20260903151010 79 100 3.0 6.0 0.00 0.02 0.02 74 1011.5
20260903150514 80 115 1.0 2.0 0.00 0.02 0.02 77 1011.7
20260903150035 80 300 0.0 2.0 0.00 0.02 0.02 75 1011.7
20260903145508 80 300 1.0 3.0 0.00 0.02 0.02 74 1011.6
20260903145012 80 37 0.0 4.0 0.00 0.02 0.02 73 1011.3
20260903144534 80 92 1.0 4.0 0.00 0.02 0.02 73 1011.2
20260903144020 79 240 0.0 6.0 0.00 0.02 0.02 74 1011.2
20260903143511 79 225 0.0 6.0 0.00 0.02 0.02 75 1011.2
20260903143030 78 103 0.0 2.0 0.00 0.02 0.02 76 1011.2
20260903142513 78 108 1.0 2.0 0.00 0.02 0.02 77 1011.2
20260903142010 78 109 0.0 2.0 0.00 0.02 0.02 75 1011.1
20260903141528 78 121 0.0 2.0 0.00 0.02 0.02 75 1011.1
20260903141008 79 121 0.0 2.0 0.00 0.02 0.02 74 1011.1
20260903140509 79 127 0.0 2.0 0.00 0.02 0.02 74 1011.1
20260903140034 79 109 0.0 2.0 0.00 0.02 0.02 75 1011.0
20260903135513 79 22 0.0 3.0 0.00 0.02 0.02 74 1011.0
20260903135014 79 216 0.0 3.0 0.00 0.02 0.02 79 1011.0
20260903134523 78 127 0.0 2.0 0.00 0.02 0.02 78 1011.0
20260903134014 77 127 0.0 2.0 0.00 0.02 0.02 77 1011.0
20260903133513 77 123 0.0 2.0 0.00 0.02 0.02 77 1011.1
20260903133021 77 123 0.0 2.0 0.00 0.02 0.02 77 1011.2
20260903132510 77 123 0.0 2.0 0.00 0.02 0.02 77 1011.2
20260903132014 77 123 0.0 2.0 0.00 0.02 0.02 77 1011.2
20260903131524 76 145 0.0 3.0 0.00 0.02 0.02 79 1011.3
20260903131015 76 103 1.0 3.0 0.00 0.02 0.02 79 1011.4
20260903130512 76 105 0.0 3.0 0.00 0.02 0.02 80 1011.5
20260903130017 75 33 0.0 2.0 0.00 0.02 0.02 83 1011.4
20260903125511 75 33 0.0 2.0 0.00 0.02 0.02 83 1011.4
20260903125010 75 352 0.0 2.0 0.00 0.02 0.02 84 1011.5
20260903124520 75 352 0.0 0.0 0.00 0.02 0.02 84 1011.6
20260903124013 75 352 0.0 0.0 0.00 0.02 0.02 85 1011.5
20260903123513 75 352 0.0 2.0 0.00 0.02 0.02 84 1011.6
20260903123032 75 352 0.0 2.0 0.00 0.02 0.02 84 1011.6
20260903122515 75 352 0.0 0.0 0.00 0.02 0.02 82 1011.4
20260903122016 75 352 0.0 0.0 0.00 0.02 0.02 84 1011.3
20260903121521 75 352 0.0 2.0 0.00 0.02 0.02 83 1011.2
20260903121014 75 352 0.0 2.0 0.00 0.02 0.02 82 1011.1
20260903120518 75 352 0.0 2.0 0.00 0.02 0.02 82 1011.0
20260903120027 74 352 0.0 1.0 0.00 0.02 0.02 84 1011.0
20260903115512 74 352 0.0 1.0 0.00 0.02 0.02 85 1011.0
20260903115017 74 352 0.0 2.0 0.00 0.02 0.02 84 1011.0
20260903114522 74 9 0.0 2.0 0.00 0.02 0.02 86 1011.0
20260903114011 74 9 0.0 2.0 0.00 0.02 0.02 87 1011.0
20260903113515 73 9 0.0 2.0 0.00 0.02 0.02 87 1010.9
20260903113026 73 9 0.0 2.0 0.00 0.02 0.02 88 1010.9
20260903112515 73 9 0.0 2.0 0.00 0.02 0.02 88 1010.8
20260903112015 73 9 0.0 2.0 0.00 0.02 0.02 89 1010.7
20260903111527 73 9 0.0 2.0 0.00 0.02 0.02 89 1010.6
20260903111004 73 10 0.0 2.0 0.01 0.02 0.02 88 1010.6
20260903110505 73 9 0.0 2.0 0.02 0.02 0.02 88 1010.6
20260903110004 73 10 0.0 2.0 0.02 0.02 0.02 87 1010.7
20260903105504 73 186 0.0 2.0 0.02 0.02 0.02 88 1010.7
20260903105002 73 186 0.0 2.0 0.02 0.02 0.02 87 1010.8
20260903104504 73 186 0.0 2.0 0.02 0.02 0.02 87 1010.9
20260903104004 73 186 0.0 2.0 0.02 0.02 0.02 87 1010.8
20260903103503 73 186 0.0 2.0 0.02 0.02 0.02 86 1010.9
20260903103003 73 186 0.0 1.0 0.02 0.02 0.02 85 1011.0
20260903102503 74 186 0.0 2.0 0.02 0.02 0.02 84 1011.0
20260903102004 75 186 0.0 2.0 0.02 0.02 0.02 81 1011.0
20260903101503 77 186 0.0 2.0 0.02 0.02 0.02 78 1011.0
20260903101007 79 186 1.0 3.0 0.01 0.01 0.01 70 1010.9
20260903100504 80 259 1.0 4.0 0.00 0.00 0.00 64 1011.0
20260903100004 80 254 1.0 4.0 0.00 0.00 0.00 64 1010.8
20260903095505 80 175 1.0 5.0 0.00 0.00 0.00 64 1010.6
20260903095003 80 225 1.0 5.0 0.00 0.00 0.00 64 1010.6
20260903094504 80 232 2.0 6.0 0.00 0.00 0.00 64 1010.5
20260903094005 80 194 1.0 6.0 0.00 0.00 0.00 64 1010.5
20260903093505 80 211 1.0 6.0 0.00 0.00 0.00 64 1010.5
20260903093003 80 186 1.0 4.0 0.00 0.00 0.00 64 1010.6
20260903092503 80 140 2.0 5.0 0.00 0.00 0.00 64 1010.6
20260903092003 80 252 1.0 5.0 0.00 0.00 0.00 64 1010.6
20260903091508 80 188 1.0 5.0 0.00 0.00 0.00 64 1010.6
20260903091004 80 187 0.0 4.0 0.00 0.00 0.00 64 1010.6
20260903090504 80 194 0.0 3.0 0.00 0.00 0.00 64 1010.6
20260903090015 80 144 1.0 3.0 0.00 0.00 0.00 64 1010.6
20260903085503 81 344 0.0 4.0 0.00 0.00 0.00 63 1010.6
20260903085002 81 173 1.0 4.0 0.00 0.00 0.00 63 1010.6
20260903084522 80 211 0.0 5.0 0.00 0.00 0.00 64 1010.6
20260903084005 81 168 0.0 5.0 0.00 0.00 0.00 63 1010.6
20260903083504 81 161 1.0 5.0 0.00 0.00 0.00 63 1010.6
20260903083010 81 173 1.0 4.0 0.00 0.00 0.00 62 1010.6
20260903082504 81 207 1.0 3.0 0.00 0.00 0.00 63 1010.6
20260903082003 81 215 1.0 3.0 0.00 0.00 0.00 62 1010.7
20260903081503 81 191 0.0 3.0 0.00 0.00 0.00 63 1010.6
20260903081004 81 227 1.0 5.0 0.00 0.00 0.00 61 1010.6
20260903080504 81 42 1.0 5.0 0.00 0.00 0.00 61 1010.7
20260903080008 82 144 1.0 4.0 0.00 0.00 0.00 61 1010.7
20260903075505 81 352 1.0 3.0 0.00 0.00 0.00 61 1010.7
20260903075005 81 230 0.0 2.0 0.00 0.00 0.00 62 1010.7
20260903074509 81 342 0.0 4.0 0.00 0.00 0.00 62 1010.6
20260903074006 81 55 0.0 4.0 0.00 0.00 0.00 63 1010.7
20260903073508 81 100 0.0 2.0 0.00 0.00 0.00 63 1010.7
20260903073009 81 159 0.0 2.0 0.00 0.00 0.00 62 1010.7
20260903072505 82 186 0.0 6.0 0.00 0.00 0.00 62 1010.7
20260903072007 82 170 1.0 6.0 0.00 0.00 0.00 62 1010.6
20260903071511 82 241 0.0 4.0 0.00 0.00 0.00 61 1010.7
20260903071003 82 264 1.0 4.0 0.00 0.00 0.00 61 1010.7
20260903070507 82 198 0.0 3.0 0.00 0.00 0.00 62 1010.8
20260903070010 82 174 0.0 8.0 0.00 0.00 0.00 62 1010.7
20260903065506 82 198 1.0 8.0 0.00 0.00 0.00 61 1010.8
20260903065005 82 254 1.0 5.0 0.00 0.00 0.00 61 1010.8
20260903064510 82 214 1.0 5.0 0.00 0.00 0.00 60 1010.7
20260903064006 83 140 2.0 5.0 0.00 0.00 0.00 60 1010.7
20260903063505 83 253 1.0 8.0 0.00 0.00 0.00 60 1010.7
20260903063011 83 186 1.0 8.0 0.00 0.00 0.00 60 1010.7
20260903062507 82 246 1.0 4.0 0.00 0.00 0.00 61 1010.8
20260903062006 83 255 1.0 4.0 0.00 0.00 0.00 60 1010.8
20260903061511 83 330 0.0 4.0 0.00 0.00 0.00 60 1010.7
20260903061008 83 215 1.0 3.0 0.00 0.00 0.00 60 1010.8
20260903060506 83 171 1.0 5.0 0.00 0.00 0.00 60 1010.9
20260903060013 83 234 1.0 5.0 0.00 0.00 0.00 60 1010.9
20260903055508 83 255 1.0 3.0 0.00 0.00 0.00 60 1010.9
20260903055007 83 190 0.0 7.0 0.00 0.00 0.00 60 1010.9
20260903054511 83 225 1.0 7.0 0.00 0.00 0.00 59 1010.8
20260903054008 83 245 0.0 4.0 0.00 0.00 0.00 60 1010.9
20260903053508 83 177 0.0 4.0 0.00 0.00 0.00 60 1010.8
20260903053026 83 257 0.0 9.0 0.00 0.00 0.00 59 1010.8
20260903052507 83 215 2.0 9.0 0.00 0.00 0.00 59 1010.8
20260903052010 84 230 1.0 6.0 0.00 0.00 0.00 58 1010.8
20260903051513 84 200 1.0 6.0 0.00 0.00 0.00 58 1010.7
20260903051010 84 304 1.0 6.0 0.00 0.00 0.00 58 1010.8
20260903050509 84 159 2.0 7.0 0.00 0.00 0.00 57 1010.8
20260903050016 84 195 2.0 5.0 0.00 0.00 0.00 58 1010.8
20260903045510 84 200 2.0 5.0 0.00 0.00 0.00 57 1010.8
20260903045008 84 295 2.0 7.0 0.00 0.00 0.00 58 1010.9
20260903044519 84 110 1.0 7.0 0.00 0.00 0.00 58 1010.9